Powrót do katalogu

COSMOS 970 DEB

AktywnyLEO
NORAD 64998·DEBRIS·🇷🇺 Russia

Wystrzelony Dec 21, 1977 z Baikonur Cosmodrome

Loading…

Następne Przeloty (najbliższe 24 godziny)

TLE

ŚwieżeSource: Space-Track

Epoka: Sep 14, 2026, 07:21 UTC

1 64998U 77121DK  26257.30691536  .00000249  00000-0  34524-3 0  9995
2 64998  65.9832 143.0310 0111058 336.8007  22.8063 13.71967569640898

Śledź COSMOS 970 DEB w czasie rzeczywistym z AllMySat

Download on the App Store